Time,TemperatureF,DewpointF,PressureIn,WindDirection,WindDirectionDegrees,WindSpeedMPH,WindSpeedGustMPH,Humidity,HourlyPrecipIn,Conditions,Clouds,dailyrainin,SoftwareType,DateUTC
2013-04-05 00:00:00,47.1,29.5,27.17,SSE,158,5.8,10.7,50,0.00,,---,0.00,VWS V14.01,2013-04-05 05:00:00,
2013-04-05 00:03:00,48.6,30.3,27.20,SE,135,8.7,10.5,49,0.00,,---,0.00,VWS V14.01,2013-04-05 05:03:00,
2013-04-05 00:08:00,48.7,30.5,27.20,SSE,158,8.1,10.5,49,0.00,,---,0.00,VWS V14.01,2013-04-05 05:08:00,
2013-04-05 00:14:00,48.4,30.1,27.20,SE,135,4.9,10.5,49,0.00,,---,0.00,VWS V14.01,2013-04-05 05:14:00,
2013-04-05 00:19:00,48.4,30.1,27.20,SSE,158,8.1,9.8,49,0.00,,---,0.00,VWS V14.01,2013-04-05 05:19:00,
2013-04-05 00:24:00,48.4,30.1,27.20,South,180,5.8,11.0,49,0.00,,---,0.00,VWS V14.01,2013-04-05 05:24:00,
2013-04-05 00:29:00,47.8,29.6,27.20,South,180,5.8,11.0,49,0.00,,---,0.00,VWS V14.01,2013-04-05 05:29:00,
2013-04-05 00:30:00,46.8,29.6,27.20,SE,135,7.6,11.0,51,0.00,,---,0.00,VWS V14.01,2013-04-05 05:30:00,
2013-04-05 00:34:00,47.7,30.0,27.20,SSE,158,7.8,9.2,50,0.00,,---,0.00,VWS V14.01,2013-04-05 05:34:00,
2013-04-05 00:39:00,47.8,30.1,27.20,South,180,7.6,10.7,50,0.00,,---,0.00,VWS V14.01,2013-04-05 05:39:00,
2013-04-05 00:44:00,47.5,29.8,27.20,SE,135,7.2,11.2,50,0.00,,---,0.00,VWS V14.01,2013-04-05 05:44:00,
2013-04-05 00:45:00,46.2,29.6,27.20,South,180,6.9,11.9,52,0.00,,---,0.00,VWS V14.01,2013-04-05 05:45:00,
2013-04-05 00:49:00,47.5,29.8,27.17,SSE,158,8.5,9.6,50,0.00,,---,0.00,VWS V14.01,2013-04-05 05:49:00,
2013-04-05 00:54:00,47.3,29.6,27.17,SSE,158,8.7,10.7,50,0.00,,---,0.00,VWS V14.01,2013-04-05 05:54:00,
2013-04-05 00:59:00,47.1,29.5,27.17,SSE,158,7.6,10.7,50,0.00,,---,0.00,VWS V14.01,2013-04-05 05:59:00,
2013-04-05 01:00:00,45.7,29.5,27.20,South,180,2.7,10.1,53,0.00,,---,0.00,VWS V14.01,2013-04-05 06:00:00,
2013-04-05 01:04:00,46.9,29.3,27.20,SE,135,8.1,8.1,50,0.00,,---,0.00,VWS V14.01,2013-04-05 06:04:00,
2013-04-05 01:09:00,46.9,29.3,27.20,SSE,158,8.1,8.7,50,0.00,,---,0.00,VWS V14.01,2013-04-05 06:09:00,
2013-04-05 01:14:00,46.8,29.6,27.20,SE,135,9.6,9.6,51,0.00,,---,0.00,VWS V14.01,2013-04-05 06:14:00,
2013-04-05 01:15:00,44.8,28.7,27.20,SW,225,2.0,3.8,53,0.00,,---,0.00,VWS V14.01,2013-04-05 06:15:00,
2013-04-05 01:19:00,46.9,29.8,27.20,SE,135,7.8,8.5,51,0.00,,---,0.00,VWS V14.01,2013-04-05 06:19:00,
2013-04-05 01:24:00,46.8,29.6,27.20,SSE,158,8.1,9.8,51,0.00,,---,0.00,VWS V14.01,2013-04-05 06:24:00,
2013-04-05 01:29:00,46.8,29.6,27.20,SE,135,7.6,11.0,51,0.00,,---,0.00,VWS V14.01,2013-04-05 06:29:00,
2013-04-05 01:30:00,44.2,29.1,27.20,South,180,3.8,6.5,55,0.00,,---,0.00,VWS V14.01,2013-04-05 06:30:00,
2013-04-05 01:34:00,46.8,29.6,27.20,South,180,7.4,10.7,51,0.00,,---,0.00,VWS V14.01,2013-04-05 06:34:00,
2013-04-05 01:39:00,46.6,29.4,27.20,SSE,158,5.8,10.7,51,0.00,,---,0.00,VWS V14.01,2013-04-05 06:39:00,
2013-04-05 01:44:00,46.4,29.3,27.20,SSE,158,11.9,11.9,51,0.00,,---,0.00,VWS V14.01,2013-04-05 06:44:00,
2013-04-05 01:45:00,43.5,29.3,27.17,South,180,3.4,5.4,57,0.00,,---,0.00,VWS V14.01,2013-04-05 06:45:00,
2013-04-05 01:49:00,46.2,29.6,27.20,South,180,5.4,10.1,52,0.00,,---,0.00,VWS V14.01,2013-04-05 06:49:00,
2013-04-05 01:54:00,45.9,29.2,27.20,South,180,5.4,10.1,52,0.00,,---,0.00,VWS V14.01,2013-04-05 06:54:00,
2013-04-05 01:59:00,45.9,29.2,27.20,South,180,4.3,10.1,52,0.00,,---,0.00,VWS V14.01,2013-04-05 06:59:00,
2013-04-05 02:00:00,43.0,29.2,27.17,South,180,4.7,6.0,58,0.00,,---,0.00,VWS V14.01,2013-04-05 07:00:00,
2013-04-05 02:05:00,45.3,28.8,27.20,West,270,0.9,3.8,52,0.00,,---,0.00,VWS V14.01,2013-04-05 07:05:00,
2013-04-05 02:10:00,44.8,28.2,27.20,SE,135,2.7,3.8,52,0.00,,---,0.00,VWS V14.01,2013-04-05 07:10:00,
2013-04-05 02:15:00,44.8,28.7,27.20,South,180,1.6,3.8,53,0.00,,---,0.00,VWS V14.01,2013-04-05 07:15:00,
2013-04-05 02:20:00,44.6,28.5,27.20,South,180,4.3,6.5,53,0.00,,---,0.00,VWS V14.01,2013-04-05 07:20:00,
2013-04-05 02:25:00,44.6,29.0,27.20,South,180,5.6,6.5,54,0.00,,---,0.00,VWS V14.01,2013-04-05 07:25:00,
2013-04-05 02:30:00,44.2,29.1,27.20,SSE,158,4.0,6.5,55,0.00,,---,0.00,VWS V14.01,2013-04-05 07:30:00,
2013-04-05 02:35:00,43.7,28.6,27.17,South,180,4.3,4.3,55,0.00,,---,0.00,VWS V14.01,2013-04-05 07:35:00,
2013-04-05 02:40:00,43.7,29.0,27.17,SSE,158,4.0,5.4,56,0.00,,---,0.00,VWS V14.01,2013-04-05 07:40:00,
2013-04-05 02:45:00,43.5,29.3,27.17,South,180,3.4,5.4,57,0.00,,---,0.00,VWS V14.01,2013-04-05 07:45:00,
2013-04-05 02:50:00,43.5,29.3,27.17,South,180,4.9,4.9,57,0.00,,---,0.00,VWS V14.01,2013-04-05 07:50:00,
2013-04-05 02:55:00,43.0,28.8,27.17,South,180,3.8,4.9,57,0.00,,---,0.00,VWS V14.01,2013-04-05 07:55:00,
2013-04-05 03:00:00,43.0,29.2,27.17,South,180,4.7,6.0,58,0.00,,---,0.00,VWS V14.01,2013-04-05 08:00:00,
2013-04-05 03:05:00,43.3,29.6,27.17,South,180,5.8,8.5,58,0.00,,---,0.00,VWS V14.01,2013-04-05 08:05:00,
2013-04-05 03:10:00,43.5,29.7,27.17,SE,135,4.3,8.5,58,0.00,,---,0.00,VWS V14.01,2013-04-05 08:10:00,
2013-04-05 03:15:00,43.5,29.7,27.17,SSW,202,4.3,4.3,58,0.00,,---,0.00,VWS V14.01,2013-04-05 08:15:00,
2013-04-05 03:20:00,43.5,29.7,27.14,South,180,2.7,6.3,58,0.00,,---,0.00,VWS V14.01,2013-04-05 08:20:00,
2013-04-05 03:25:00,43.2,29.4,27.14,South,180,4.3,6.3,58,0.00,,---,0.00,VWS V14.01,2013-04-05 08:25:00,
2013-04-05 03:30:00,42.8,29.1,27.14,South,180,4.3,4.3,58,0.00,,---,0.00,VWS V14.01,2013-04-05 08:30:00,
2013-04-05 03:35:00,42.4,28.7,27.14,South,180,4.0,5.4,58,0.00,,---,0.00,VWS V14.01,2013-04-05 08:35:00,
2013-04-05 03:40:00,42.3,28.5,27.14,SSE,158,3.4,5.4,58,0.00,,---,0.00,VWS V14.01,2013-04-05 08:40:00,
2013-04-05 03:45:00,41.7,28.5,27.14,SE,135,2.0,5.4,59,0.00,,---,0.00,VWS V14.01,2013-04-05 08:45:00,
2013-04-05 03:50:00,41.5,28.3,27.14,SE,135,2.5,3.6,59,0.00,,---,0.00,VWS V14.01,2013-04-05 08:50:00,
2013-04-05 03:55:00,41.4,28.1,27.14,SE,135,3.1,4.0,59,0.00,,---,0.00,VWS V14.01,2013-04-05 08:55:00,
2013-04-05 04:00:00,41.7,28.9,27.14,South,180,3.8,4.9,60,0.00,,---,0.00,VWS V14.01,2013-04-05 09:00:00,
2013-04-05 04:05:00,41.9,29.0,27.14,South,180,6.3,6.3,60,0.00,,---,0.00,VWS V14.01,2013-04-05 09:05:00,
2013-04-05 04:10:00,42.1,29.2,27.14,South,180,4.7,6.3,60,0.00,,---,0.00,VWS V14.01,2013-04-05 09:10:00,
2013-04-05 04:15:00,41.7,28.9,27.14,SSW,202,2.9,2.9,60,0.00,,---,0.00,VWS V14.01,2013-04-05 09:15:00,
2013-04-05 04:20:00,41.7,28.5,27.14,SE,135,2.9,3.4,59,0.00,,---,0.00,VWS V14.01,2013-04-05 09:20:00,
2013-04-05 04:25:00,41.9,28.6,27.14,SE,135,2.5,3.4,59,0.00,,---,0.00,VWS V14.01,2013-04-05 09:25:00,
2013-04-05 04:30:00,41.9,28.6,27.14,South,180,1.3,3.4,59,0.00,,---,0.00,VWS V14.01,2013-04-05 09:30:00,
2013-04-05 04:35:00,41.7,28.0,27.14,SE,135,0.0,2.0,58,0.00,,---,0.00,VWS V14.01,2013-04-05 09:35:00,
2013-04-05 04:40:00,41.7,28.0,27.14,SE,135,2.7,2.7,58,0.00,,---,0.00,VWS V14.01,2013-04-05 09:40:00,
2013-04-05 04:45:00,41.7,28.0,27.14,SE,135,2.5,2.7,58,0.00,,---,0.00,VWS V14.01,2013-04-05 09:45:00,
2013-04-05 04:50:00,41.7,28.0,27.14,SE,135,2.5,2.7,58,0.00,,---,0.00,VWS V14.01,2013-04-05 09:50:00,
2013-04-05 04:55:00,41.7,28.5,27.14,SE,135,2.0,3.1,59,0.00,,---,0.00,VWS V14.01,2013-04-05 09:55:00,
2013-04-05 05:00:00,41.7,28.5,27.14,SE,135,2.0,2.0,59,0.00,,---,0.00,VWS V14.01,2013-04-05 10:00:00,
2013-04-05 05:05:00,42.1,28.8,27.14,SSE,158,2.2,2.7,59,0.00,,---,0.00,VWS V14.01,2013-04-05 10:05:00,
2013-04-05 05:10:00,41.7,28.5,27.14,SE,135,2.5,2.9,59,0.00,,---,0.00,VWS V14.01,2013-04-05 10:10:00,
2013-04-05 05:15:00,41.4,28.1,27.14,SE,135,0.0,1.6,59,0.00,,---,0.00,VWS V14.01,2013-04-05 10:15:00,
2013-04-05 05:20:00,41.2,28.0,27.14,SE,135,1.1,2.0,59,0.00,,---,0.00,VWS V14.01,2013-04-05 10:20:00,
2013-04-05 05:25:00,41.5,28.7,27.14,South,180,2.0,2.7,60,0.00,,---,0.00,VWS V14.01,2013-04-05 10:25:00,
2013-04-05 05:30:00,41.4,28.1,27.14,South,180,0.0,2.7,59,0.00,,---,0.00,VWS V14.01,2013-04-05 10:30:00,
2013-04-05 05:35:00,41.4,28.5,27.14,SW,225,0.9,2.7,60,0.00,,---,0.00,VWS V14.01,2013-04-05 10:35:00,
2013-04-05 05:40:00,42.1,29.6,27.14,SW,225,1.3,2.7,61,0.00,,---,0.00,VWS V14.01,2013-04-05 10:40:00,
2013-04-05 05:45:00,42.3,29.8,27.14,SW,225,2.2,2.2,61,0.00,,---,0.00,VWS V14.01,2013-04-05 10:45:00,
2013-04-05 05:50:00,42.6,30.1,27.11,SW,225,2.7,3.6,61,0.00,,---,0.00,VWS V14.01,2013-04-05 10:50:00,
2013-04-05 05:55:00,43.0,30.1,27.11,South,180,2.5,4.7,60,0.00,,---,0.00,VWS V14.01,2013-04-05 10:55:00,
2013-04-05 06:00:00,42.8,29.5,27.11,SE,135,2.9,2.9,59,0.00,,---,0.00,VWS V14.01,2013-04-05 11:00:00,
2013-04-05 06:05:00,42.8,29.5,27.11,SE,135,2.7,3.4,59,0.00,,---,0.00,VWS V14.01,2013-04-05 11:05:00,
2013-04-05 06:10:00,42.6,29.7,27.11,SSE,158,2.7,3.6,60,0.00,,---,0.00,VWS V14.01,2013-04-05 11:10:00,
2013-04-05 06:15:00,42.8,29.9,27.11,SW,225,2.0,2.2,60,0.00,,---,0.00,VWS V14.01,2013-04-05 11:15:00,
2013-04-05 06:20:00,42.4,29.5,27.11,SW,225,1.6,2.5,60,0.00,,---,0.00,VWS V14.01,2013-04-05 11:20:00,
2013-04-05 06:25:00,41.7,28.5,27.11,North,0,0.0,2.5,59,0.00,,---,0.00,VWS V14.01,2013-04-05 11:25:00,
2013-04-05 06:30:00,41.2,28.0,27.11,North,0,0.0,2.5,59,0.00,,---,0.00,VWS V14.01,2013-04-05 11:30:00,
2013-04-05 06:35:00,41.0,27.8,27.11,NNE,22,0.0,1.1,59,0.00,,---,0.00,VWS V14.01,2013-04-05 11:35:00,
2013-04-05 06:40:00,40.6,27.5,27.11,NE,45,1.3,2.0,59,0.00,,---,0.00,VWS V14.01,2013-04-05 11:40:00,
2013-04-05 06:45:00,40.6,27.9,27.11,NE,45,0.9,2.0,60,0.00,,---,0.00,VWS V14.01,2013-04-05 11:45:00,
2013-04-05 06:50:00,40.6,27.9,27.08,NE,45,2.0,2.5,60,0.00,,---,0.00,VWS V14.01,2013-04-05 11:50:00,
2013-04-05 06:55:00,40.6,27.9,27.08,NE,45,2.5,2.7,60,0.00,,---,0.00,VWS V14.01,2013-04-05 11:55:00,
2013-04-05 07:00:00,40.3,27.5,27.08,East,90,1.6,2.7,60,0.00,,---,0.00,VWS V14.01,2013-04-05 12:00:00,
2013-04-05 07:05:00,39.9,27.2,27.08,ESE,112,1.6,2.7,60,0.00,,---,0.00,VWS V14.01,2013-04-05 12:05:00,
2013-04-05 07:10:00,40.6,28.6,27.08,SE,135,2.2,2.7,62,0.00,,---,0.00,VWS V14.01,2013-04-05 12:10:00,
2013-04-05 07:15:00,41.2,29.2,27.08,NE,45,2.0,2.2,62,0.00,,---,0.00,VWS V14.01,2013-04-05 12:15:00,
2013-04-05 07:20:00,41.5,29.5,27.08,ESE,112,3.1,3.8,62,0.00,,---,0.00,VWS V14.01,2013-04-05 12:20:00,
2013-04-05 07:25:00,41.9,29.9,27.08,East,90,2.7,3.8,62,0.00,,---,0.00,VWS V14.01,2013-04-05 12:25:00,
2013-04-05 07:30:00,42.3,30.2,27.08,SE,135,3.1,3.1,62,0.00,,---,0.00,VWS V14.01,2013-04-05 12:30:00,
2013-04-05 07:35:00,42.4,30.0,27.08,SSW,202,2.7,3.4,61,0.00,,---,0.00,VWS V14.01,2013-04-05 12:35:00,
2013-04-05 07:40:00,43.2,30.2,27.08,SE,135,2.0,4.0,60,0.00,,---,0.00,VWS V14.01,2013-04-05 12:40:00,
2013-04-05 07:45:00,44.2,30.8,27.08,SE,135,3.4,3.4,59,0.00,,---,0.00,VWS V14.01,2013-04-05 12:45:00,
2013-04-05 07:50:00,46.2,31.4,27.08,SSW,202,4.0,7.6,56,0.00,,---,0.00,VWS V14.01,2013-04-05 12:50:00,
2013-04-05 07:55:00,46.2,31.0,27.08,SE,135,5.4,7.6,55,0.00,,---,0.00,VWS V14.01,2013-04-05 12:55:00,
2013-04-05 08:00:00,46.2,30.5,27.08,SE,135,6.5,7.6,54,0.00,,---,0.00,VWS V14.01,2013-04-05 13:00:00,
2013-04-05 08:05:00,46.2,30.0,27.08,SE,135,5.6,8.5,53,0.00,,---,0.00,VWS V14.01,2013-04-05 13:05:00,
2013-04-05 08:10:00,46.0,29.9,27.08,SE,135,4.3,8.5,53,0.00,,---,0.00,VWS V14.01,2013-04-05 13:10:00,
2013-04-05 08:15:00,46.2,30.0,27.08,SE,135,3.6,3.6,53,0.00,,---,0.00,VWS V14.01,2013-04-05 13:15:00,
2013-04-05 08:20:00,46.8,30.5,27.08,SE,135,2.0,5.4,53,0.00,,---,0.00,VWS V14.01,2013-04-05 13:20:00,
2013-04-05 08:25:00,48.0,31.7,27.08,SE,135,2.9,5.4,53,0.00,,---,0.00,VWS V14.01,2013-04-05 13:25:00,
2013-04-05 08:30:00,49.6,32.8,27.08,SE,135,1.3,1.3,52,0.00,,---,0.00,VWS V14.01,2013-04-05 13:30:00,
2013-04-05 08:35:00,51.6,34.1,27.08,SE,135,2.2,3.6,51,0.00,,---,0.00,VWS V14.01,2013-04-05 13:35:00,
2013-04-05 08:40:00,53.8,34.6,27.08,East,90,2.0,3.8,48,0.00,,---,0.00,VWS V14.01,2013-04-05 13:40:00,
2013-04-05 08:45:00,55.4,35.5,27.08,East,90,2.9,3.1,47,0.00,,---,0.00,VWS V14.01,2013-04-05 13:45:00,
2013-04-05 08:50:00,56.8,36.3,27.05,SE,135,3.6,3.8,46,0.00,,---,0.00,VWS V14.01,2013-04-05 13:50:00,
2013-04-05 08:55:00,58.1,36.3,27.05,SE,135,2.7,3.8,44,0.00,,---,0.00,VWS V14.01,2013-04-05 13:55:00,
2013-04-05 09:00:00,58.8,36.4,27.05,SE,135,3.1,3.8,43,0.00,,---,0.00,VWS V14.01,2013-04-05 14:00:00,
2013-04-05 09:05:00,59.2,35.5,27.08,SE,135,4.7,6.0,41,0.00,,---,0.00,VWS V14.01,2013-04-05 14:05:00,
2013-04-05 09:10:00,59.4,35.7,27.08,SE,135,4.9,6.0,41,0.00,,---,0.00,VWS V14.01,2013-04-05 14:10:00,
2013-04-05 09:15:00,60.1,35.7,27.08,SE,135,5.4,5.4,40,0.00,,---,0.00,VWS V14.01,2013-04-05 14:15:00,
2013-04-05 09:20:00,60.4,35.4,27.08,SSE,158,4.9,7.8,39,0.00,,---,0.00,VWS V14.01,2013-04-05 14:20:00,
2013-04-05 09:25:00,59.9,34.9,27.08,SSE,158,6.3,7.8,39,0.00,,---,0.00,VWS V14.01,2013-04-05 14:25:00,
2013-04-05 09:30:00,61.2,34.7,27.08,SW,225,6.3,6.3,37,0.00,,---,0.00,VWS V14.01,2013-04-05 14:30:00,
2013-04-05 09:35:00,62.8,35.5,27.08,South,180,7.6,8.7,36,0.00,,---,0.00,VWS V14.01,2013-04-05 14:35:00,
2013-04-05 09:40:00,63.0,34.9,27.08,SE,135,6.0,8.7,35,0.00,,---,0.00,VWS V14.01,2013-04-05 14:40:00,
2013-04-05 09:45:00,63.1,35.1,27.08,SE,135,5.4,8.7,35,0.00,,---,0.00,VWS V14.01,2013-04-05 14:45:00,
2013-04-05 09:50:00,63.9,35.0,27.08,SW,225,8.1,8.5,34,0.00,,---,0.00,VWS V14.01,2013-04-05 14:50:00,
2013-04-05 09:55:00,64.4,33.1,27.08,South,180,6.3,14.8,31,0.00,,---,0.00,VWS V14.01,2013-04-05 14:55:00,
2013-04-05 10:00:00,64.9,32.8,27.08,SW,225,5.4,5.6,30,0.00,,---,0.00,VWS V14.01,2013-04-05 15:00:00,
2013-04-05 10:05:00,64.9,31.1,27.08,South,180,15.2,17.7,28,0.00,,---,0.00,VWS V14.01,2013-04-05 15:05:00,
2013-04-05 10:10:00,64.8,30.0,27.08,South,180,17.2,21.0,27,0.00,,---,0.00,VWS V14.01,2013-04-05 15:10:00,
2013-04-05 10:15:00,64.8,30.0,27.08,SSW,202,8.1,8.1,27,0.00,,---,0.00,VWS V14.01,2013-04-05 15:15:00,
2013-04-05 10:20:00,64.8,29.1,27.05,SW,225,12.1,15.4,26,0.00,,---,0.00,VWS V14.01,2013-04-05 15:20:00,
2013-04-05 10:25:00,64.8,29.1,27.05,SW,225,9.8,15.4,26,0.00,,---,0.00,VWS V14.01,2013-04-05 15:25:00,
2013-04-05 10:30:00,65.1,30.3,27.05,SW,225,7.4,7.6,27,0.00,,---,0.00,VWS V14.01,2013-04-05 15:30:00,
2013-04-05 10:35:00,65.5,30.6,27.05,South,180,6.0,8.7,27,0.00,,---,0.00,VWS V14.01,2013-04-05 15:35:00,
2013-04-05 10:40:00,66.2,31.3,27.05,SW,225,8.7,8.7,27,0.00,,---,0.00,VWS V14.01,2013-04-05 15:40:00,
2013-04-05 10:45:00,67.3,31.2,27.05,SW,225,6.5,7.4,26,0.00,,---,0.00,VWS V14.01,2013-04-05 15:45:00,
2013-04-05 10:50:00,68.4,30.2,27.02,SW,225,8.1,13.0,24,0.00,,---,0.00,VWS V14.01,2013-04-05 15:50:00,
2013-04-05 10:56:00,68.5,31.4,27.02,SW,225,11.9,17.2,25,0.00,,---,0.00,VWS V14.01,2013-04-05 15:56:00,
2013-04-05 11:00:00,66.6,29.7,27.02,SW,225,12.5,18.6,25,0.00,,---,0.00,VWS V14.01,2013-04-05 16:00:00,
2013-04-05 11:01:00,69.3,31.0,27.02,SSW,202,14.3,14.3,24,0.00,,---,0.00,VWS V14.01,2013-04-05 16:01:00,
2013-04-05 11:06:00,68.9,30.6,26.99,SW,225,12.5,19.9,24,0.00,,---,0.00,VWS V14.01,2013-04-05 16:06:00,
2013-04-05 11:11:00,67.8,29.7,26.99,SSW,202,11.9,19.9,24,0.00,,---,0.00,VWS V14.01,2013-04-05 16:11:00,
2013-04-05 11:15:00,68.2,31.0,26.99,SW,225,15.4,17.7,25,0.00,,---,0.00,VWS V14.01,2013-04-05 16:15:00,
2013-04-05 11:16:00,67.5,30.4,26.99,SW,225,15.7,15.7,25,0.00,,---,0.00,VWS V14.01,2013-04-05 16:16:00,
2013-04-05 11:21:00,67.3,30.3,27.02,SW,225,12.8,17.2,25,0.00,,---,0.00,VWS V14.01,2013-04-05 16:21:00,
2013-04-05 11:26:00,66.7,29.8,27.02,SW,225,18.1,19.5,25,0.00,,---,0.00,VWS V14.01,2013-04-05 16:26:00,
2013-04-05 11:30:00,70.0,31.6,26.99,SSW,202,10.5,20.4,24,0.00,,---,0.00,VWS V14.01,2013-04-05 16:30:00,
2013-04-05 11:31:00,66.4,29.5,27.02,SW,225,12.8,18.6,25,0.00,,---,0.00,VWS V14.01,2013-04-05 16:31:00,
2013-04-05 11:36:00,66.2,30.3,27.02,SW,225,14.5,18.6,26,0.00,,---,0.00,VWS V14.01,2013-04-05 16:36:00,
2013-04-05 11:41:00,65.7,29.9,27.02,SW,225,15.2,18.6,26,0.00,,---,0.00,VWS V14.01,2013-04-05 16:41:00,
2013-04-05 11:45:00,72.5,31.5,26.99,SW,225,10.3,19.7,22,0.00,,---,0.00,VWS V14.01,2013-04-05 16:45:00,
2013-04-05 11:46:00,65.8,30.0,27.02,SSW,202,15.4,18.6,26,0.00,,---,0.00,VWS V14.01,2013-04-05 16:46:00,
2013-04-05 11:51:00,66.2,30.3,27.02,SW,225,15.4,18.6,26,0.00,,---,0.00,VWS V14.01,2013-04-05 16:51:00,
2013-04-05 11:56:00,66.6,30.6,27.02,SW,225,10.3,18.6,26,0.00,,---,0.00,VWS V14.01,2013-04-05 16:56:00,
2013-04-05 12:00:00,72.9,17.3,26.99,SW,225,19.0,19.0,12,0.00,,---,0.00,VWS V14.01,2013-04-05 17:00:00,
2013-04-05 12:01:00,66.6,29.7,27.02,SW,225,13.0,13.0,25,0.00,,---,0.00,VWS V14.01,2013-04-05 17:01:00,
2013-04-05 12:06:00,67.3,31.2,26.99,SSW,202,11.0,14.8,26,0.00,,---,0.00,VWS V14.01,2013-04-05 17:06:00,
2013-04-05 12:11:00,67.6,30.6,26.99,South,180,16.6,17.7,25,0.00,,---,0.00,VWS V14.01,2013-04-05 17:11:00,
2013-04-05 12:15:00,68.2,31.0,26.99,SSW,202,13.9,15.4,25,0.00,,---,0.00,VWS V14.01,2013-04-05 17:15:00,
2013-04-05 12:20:00,69.4,32.1,26.99,SSW,202,14.5,19.7,25,0.00,,---,0.00,VWS V14.01,2013-04-05 17:20:00,
2013-04-05 12:26:00,70.3,31.9,26.99,South,180,15.9,19.7,24,0.00,,---,0.00,VWS V14.01,2013-04-05 17:26:00,
2013-04-05 12:30:00,75.4,-4.9,26.93,West,270,10.3,14.5,4,0.00,,---,0.00,VWS V14.01,2013-04-05 17:30:00,
2013-04-05 12:31:00,70.2,31.7,26.99,South,180,10.5,10.5,24,0.00,,---,0.00,VWS V14.01,2013-04-05 17:31:00,
2013-04-05 12:36:00,70.2,31.7,26.99,SSW,202,14.8,19.7,24,0.00,,---,0.00,VWS V14.01,2013-04-05 17:36:00,
2013-04-05 12:41:00,71.2,31.6,26.99,SW,225,10.7,19.7,23,0.00,,---,0.00,VWS V14.01,2013-04-05 17:41:00,
2013-04-05 12:45:00,75.2,3.6,26.96,SSW,202,8.5,17.2,6,0.00,,---,0.00,VWS V14.01,2013-04-05 17:45:00,
2013-04-05 12:46:00,72.7,29.3,26.99,West,270,10.3,13.2,20,0.00,,---,0.00,VWS V14.01,2013-04-05 17:46:00,
2013-04-05 12:51:00,72.9,25.5,26.99,SW,225,12.3,13.6,17,0.00,,---,0.00,VWS V14.01,2013-04-05 17:51:00,
2013-04-05 12:56:00,73.8,21.6,26.99,SW,225,12.3,15.4,14,0.00,,---,0.00,VWS V14.01,2013-04-05 17:56:00,
2013-04-05 13:00:00,75.0,-11.0,26.93,SW,225,10.1,15.2,3,0.00,,---,0.00,VWS V14.01,2013-04-05 18:00:00,
2013-04-05 13:01:00,72.9,17.3,26.99,SSW,202,17.2,19.0,12,0.00,,---,0.00,VWS V14.01,2013-04-05 18:01:00,
2013-04-05 13:06:00,73.4,11.2,26.96,SSW,202,14.1,19.0,9,0.00,,---,0.00,VWS V14.01,2013-04-05 18:06:00,
2013-04-05 13:11:00,73.9,18.2,26.96,SW,225,12.5,19.0,12,0.00,,---,0.00,VWS V14.01,2013-04-05 18:11:00,
2013-04-05 13:15:00,73.9,-5.9,26.93,SW,225,10.1,10.7,4,0.00,,---,0.00,VWS V14.01,2013-04-05 18:15:00,
2013-04-05 13:16:00,73.9,11.6,26.96,SW,225,7.8,9.8,9,0.00,,---,0.00,VWS V14.01,2013-04-05 18:16:00,
2013-04-05 13:21:00,74.5,-5.5,26.93,South,180,8.7,10.3,4,0.00,,---,0.00,VWS V14.01,2013-04-05 18:21:00,
2013-04-05 13:26:00,75.0,6.8,26.93,West,270,6.0,10.7,7,0.00,,---,0.00,VWS V14.01,2013-04-05 18:26:00,
2013-04-05 13:30:00,73.9,-11.7,26.90,SW,225,5.8,10.1,3,0.00,,---,0.00,VWS V14.01,2013-04-05 18:30:00,
2013-04-05 13:31:00,75.2,3.6,26.93,South,180,8.7,10.3,6,0.00,,---,0.00,VWS V14.01,2013-04-05 18:31:00,
2013-04-05 13:36:00,73.9,-5.9,26.96,South,180,12.5,17.2,4,0.00,,---,0.00,VWS V14.01,2013-04-05 18:36:00,
2013-04-05 13:41:00,73.8,5.9,26.96,SW,225,9.6,17.2,7,0.00,,---,0.00,VWS V14.01,2013-04-05 18:41:00,
2013-04-05 13:45:00,77.2,-9.6,26.90,SW,225,4.7,8.5,3,0.00,,---,0.00,VWS V14.01,2013-04-05 18:45:00,
2013-04-05 13:46:00,75.7,17.5,26.96,SW,225,7.6,9.8,11,0.00,,---,0.00,VWS V14.01,2013-04-05 18:46:00,
2013-04-05 13:51:00,76.3,-4.3,26.93,SW,225,12.1,12.8,4,0.00,,---,0.00,VWS V14.01,2013-04-05 18:51:00,
2013-04-05 13:56:00,75.2,-10.9,26.93,SSW,202,10.5,13.2,3,0.00,,---,0.00,VWS V14.01,2013-04-05 18:56:00,
2013-04-05 14:00:00,81.5,-6.7,26.90,West,270,6.3,10.3,3,0.00,,---,0.00,VWS V14.01,2013-04-05 19:00:00,
2013-04-05 14:01:00,74.3,-11.5,26.93,SW,225,7.8,10.1,3,0.00,,---,0.00,VWS V14.01,2013-04-05 19:01:00,
2013-04-05 14:06:00,74.1,-11.6,26.93,SW,225,7.6,10.7,3,0.00,,---,0.00,VWS V14.01,2013-04-05 19:06:00,
2013-04-05 14:11:00,73.8,-6.0,26.93,SW,225,8.1,10.7,4,0.00,,---,0.00,VWS V14.01,2013-04-05 19:11:00,
2013-04-05 14:15:00,84.9,-4.4,26.90,SSW,202,4.3,12.3,3,0.00,,---,0.00,VWS V14.01,2013-04-05 19:15:00,
2013-04-05 14:16:00,73.8,-11.9,26.93,SW,225,5.8,10.1,3,0.00,,---,0.00,VWS V14.01,2013-04-05 19:16:00,
2013-04-05 14:22:00,73.6,-12.0,26.90,NW,315,6.0,10.1,3,0.00,,---,0.00,VWS V14.01,2013-04-05 19:22:00,
2013-04-05 14:27:00,73.8,-11.9,26.90,SW,225,7.6,10.1,3,0.00,,---,0.00,VWS V14.01,2013-04-05 19:27:00,
2013-04-05 14:30:00,85.6,-3.9,26.90,SW,225,2.9,10.5,3,0.00,,---,0.00,VWS V14.01,2013-04-05 19:30:00,
2013-04-05 14:32:00,74.3,-11.5,26.90,NW,315,3.6,6.0,3,0.00,,---,0.00,VWS V14.01,2013-04-05 19:32:00,
2013-04-05 14:37:00,74.8,-11.1,26.90,SW,225,7.4,8.5,3,0.00,,---,0.00,VWS V14.01,2013-04-05 19:37:00,
2013-04-05 14:42:00,75.7,-10.5,26.90,West,270,4.3,8.5,3,0.00,,---,0.00,VWS V14.01,2013-04-05 19:42:00,
2013-04-05 14:45:00,83.3,-5.5,26.87,SW,225,5.8,8.7,3,0.00,,---,0.00,VWS V14.01,2013-04-05 19:45:00,
2013-04-05 14:47:00,77.2,-9.6,26.90,SW,225,4.0,4.7,3,0.00,,---,0.00,VWS V14.01,2013-04-05 19:47:00,
2013-04-05 14:52:00,78.8,-8.5,26.90,WSW,248,3.8,8.7,3,0.00,,---,0.00,VWS V14.01,2013-04-05 19:52:00,
2013-04-05 14:57:00,81.5,-6.7,26.90,SW,225,4.3,8.7,3,0.00,,---,0.00,VWS V14.01,2013-04-05 19:57:00,
2013-04-05 15:00:00,82.6,-5.9,26.87,SSW,202,2.9,7.8,3,0.00,,---,0.00,VWS V14.01,2013-04-05 20:00:00,
2013-04-05 15:02:00,81.9,-6.4,26.90,WSW,248,7.2,12.3,3,0.00,,---,0.00,VWS V14.01,2013-04-05 20:02:00,
2013-04-05 15:07:00,81.7,-6.6,26.90,SW,225,6.5,12.3,3,0.00,,---,0.00,VWS V14.01,2013-04-05 20:07:00,
2013-04-05 15:12:00,83.5,-5.3,26.90,SSE,158,6.3,12.3,3,0.00,,---,0.00,VWS V14.01,2013-04-05 20:12:00,
2013-04-05 15:15:00,81.0,-7.0,26.84,SW,225,4.0,6.0,3,0.00,,---,0.00,VWS V14.01,2013-04-05 20:15:00,
2013-04-05 15:17:00,85.1,-4.3,26.90,SW,225,6.9,6.9,3,0.00,,---,0.00,VWS V14.01,2013-04-05 20:17:00,
2013-04-05 15:22:00,85.5,-4.0,26.90,SW,225,3.6,10.5,3,0.00,,---,0.00,VWS V14.01,2013-04-05 20:22:00,
2013-04-05 15:27:00,86.5,-3.3,26.90,SSW,202,5.8,10.5,3,0.00,,---,0.00,VWS V14.01,2013-04-05 20:27:00,
2013-04-05 15:30:00,81.1,-6.9,26.84,South,180,2.7,6.7,3,0.00,,---,0.00,VWS V14.01,2013-04-05 20:30:00,
2013-04-05 15:32:00,86.0,-3.7,26.90,SW,225,8.7,8.7,3,0.00,,---,0.00,VWS V14.01,2013-04-05 20:32:00,
2013-04-05 15:37:00,85.5,-4.0,26.87,SSW,202,4.0,8.7,3,0.00,,---,0.00,VWS V14.01,2013-04-05 20:37:00,
2013-04-05 15:42:00,83.8,-5.1,26.87,West,270,4.9,8.7,3,0.00,,---,0.00,VWS V14.01,2013-04-05 20:42:00,
2013-04-05 15:45:00,80.8,-7.2,26.84,West,270,1.6,4.7,3,0.00,,---,0.00,VWS V14.01,2013-04-05 20:45:00,
2013-04-05 15:47:00,83.1,-5.6,26.87,SW,225,3.6,6.3,3,0.00,,---,0.00,VWS V14.01,2013-04-05 20:47:00,
2013-04-05 15:52:00,82.8,-5.8,26.87,SW,225,4.3,7.8,3,0.00,,---,0.00,VWS V14.01,2013-04-05 20:52:00,
2013-04-05 15:57:00,82.6,-5.9,26.87,West,270,2.0,7.8,3,0.00,,---,0.00,VWS V14.01,2013-04-05 20:57:00,
2013-04-05 16:00:00,85.3,-4.1,26.84,SW,225,4.3,5.6,3,0.00,,---,0.00,VWS V14.01,2013-04-05 21:00:00,
2013-04-05 16:02:00,82.6,-5.9,26.84,NW,315,2.9,3.8,3,0.00,,---,0.00,VWS V14.01,2013-04-05 21:02:00,
2013-04-05 16:07:00,82.0,-6.3,26.84,SW,225,3.6,4.0,3,0.00,,---,0.00,VWS V14.01,2013-04-05 21:07:00,
2013-04-05 16:12:00,81.1,-6.9,26.84,SW,225,3.8,6.0,3,0.00,,---,0.00,VWS V14.01,2013-04-05 21:12:00,
2013-04-05 16:15:00,83.3,-5.5,26.84,SSW,202,4.3,9.8,3,0.00,,---,0.00,VWS V14.01,2013-04-05 21:15:00,
2013-04-05 16:17:00,81.0,-7.0,26.84,South,180,5.6,6.7,3,0.00,,---,0.00,VWS V14.01,2013-04-05 21:17:00,
2013-04-05 16:22:00,81.7,-6.6,26.84,SW,225,6.0,6.7,3,0.00,,---,0.00,VWS V14.01,2013-04-05 21:22:00,
2013-04-05 16:27:00,81.5,-6.7,26.84,West,270,2.0,6.7,3,0.00,,---,0.00,VWS V14.01,2013-04-05 21:27:00,
2013-04-05 16:32:00,81.1,-6.9,26.84,SW,225,3.1,3.8,3,0.00,,---,0.00,VWS V14.01,2013-04-05 21:32:00,
2013-04-05 16:37:00,80.8,-7.2,26.84,SW,225,2.0,4.7,3,0.00,,---,0.00,VWS V14.01,2013-04-05 21:37:00,
2013-04-05 16:42:00,80.6,-7.3,26.84,SW,225,2.5,4.7,3,0.00,,---,0.00,VWS V14.01,2013-04-05 21:42:00,
2013-04-05 16:47:00,81.0,-7.0,26.84,West,270,2.7,2.7,3,0.00,,---,0.00,VWS V14.01,2013-04-05 21:47:00,
2013-04-05 16:52:00,82.0,-6.3,26.84,West,270,2.2,3.8,3,0.00,,---,0.00,VWS V14.01,2013-04-05 21:52:00,
2013-04-05 16:57:00,85.1,-4.3,26.84,NE,45,3.1,4.9,3,0.00,,---,0.00,VWS V14.01,2013-04-05 21:57:00,
2013-04-05 17:00:00,81.1,-6.9,26.84,SW,225,2.7,8.5,3,0.00,,---,0.00,VWS V14.01,2013-04-05 22:00:00,
2013-04-05 17:02:00,85.3,-4.1,26.84,NW,315,0.0,4.3,3,0.00,,---,0.00,VWS V14.01,2013-04-05 22:02:00,
2013-04-05 17:07:00,85.1,-4.3,26.84,SE,135,5.4,7.6,3,0.00,,---,0.00,VWS V14.01,2013-04-05 22:07:00,
2013-04-05 17:12:00,84.4,-4.7,26.84,SSE,158,6.5,8.7,3,0.00,,---,0.00,VWS V14.01,2013-04-05 22:12:00,
2013-04-05 17:15:00,81.9,-6.4,26.84,SW,225,8.1,10.3,3,0.00,,---,0.00,VWS V14.01,2013-04-05 22:15:00,
2013-04-05 17:17:00,83.1,-5.6,26.84,SE,135,6.3,6.3,3,0.00,,---,0.00,VWS V14.01,2013-04-05 22:17:00,
2013-04-05 17:22:00,81.3,-6.8,26.84,SW,225,5.8,8.5,3,0.00,,---,0.00,VWS V14.01,2013-04-05 22:22:00,
2013-04-05 17:27:00,80.4,-7.4,26.84,South,180,1.6,8.5,3,0.00,,---,0.00,VWS V14.01,2013-04-05 22:27:00,
2013-04-05 17:30:00,79.5,-8.0,26.84,SW,225,2.7,10.5,3,0.00,,---,0.00,VWS V14.01,2013-04-05 22:30:00,
2013-04-05 17:32:00,80.1,-7.6,26.84,SW,225,2.2,8.5,3,0.00,,---,0.00,VWS V14.01,2013-04-05 22:32:00,
2013-04-05 17:37:00,80.1,-7.6,26.84,SW,225,4.7,8.5,3,0.00,,---,0.00,VWS V14.01,2013-04-05 22:37:00,
2013-04-05 17:42:00,79.9,-7.8,26.84,SW,225,2.2,8.5,3,0.00,,---,0.00,VWS V14.01,2013-04-05 22:42:00,
2013-04-05 17:45:00,77.4,-9.4,26.84,South,180,5.8,10.3,3,0.00,,---,0.00,VWS V14.01,2013-04-05 22:45:00,
2013-04-05 17:47:00,80.6,-7.3,26.84,NW,315,1.6,8.5,3,0.00,,---,0.00,VWS V14.01,2013-04-05 22:47:00,
2013-04-05 17:52:00,80.2,-7.5,26.84,West,270,0.0,8.5,3,0.00,,---,0.00,VWS V14.01,2013-04-05 22:52:00,
2013-04-05 17:57:00,80.2,-7.5,26.84,SW,225,2.5,8.5,3,0.00,,---,0.00,VWS V14.01,2013-04-05 22:57:00,
2013-04-05 18:00:00,77.4,-9.4,26.84,SSW,202,3.4,6.5,3,0.00,,---,0.00,VWS V14.01,2013-04-05 23:00:00,
2013-04-05 18:02:00,81.3,-6.8,26.84,SW,225,4.0,4.0,3,0.00,,---,0.00,VWS V14.01,2013-04-05 23:02:00,
2013-04-05 18:07:00,82.0,-6.3,26.84,SW,225,5.4,5.8,3,0.00,,---,0.00,VWS V14.01,2013-04-05 23:07:00,
2013-04-05 18:12:00,82.6,-5.9,26.84,South,180,8.7,8.7,3,0.00,,---,0.00,VWS V14.01,2013-04-05 23:12:00,
2013-04-05 18:15:00,75.7,-10.5,26.81,SW,225,2.5,6.3,3,0.00,,---,0.00,VWS V14.01,2013-04-05 23:15:00,
2013-04-05 18:17:00,82.0,-6.3,26.84,South,180,6.3,8.1,3,0.00,,---,0.00,VWS V14.01,2013-04-05 23:17:00,
2013-04-05 18:22:00,80.8,-7.2,26.84,NW,315,2.7,8.1,3,0.00,,---,0.00,VWS V14.01,2013-04-05 23:22:00,
2013-04-05 18:27:00,79.7,-7.9,26.84,South,180,4.9,10.5,3,0.00,,---,0.00,VWS V14.01,2013-04-05 23:27:00,
2013-04-05 18:30:00,73.0,-6.5,26.84,South,180,4.0,6.0,4,0.00,,---,0.00,VWS V14.01,2013-04-05 23:30:00,
2013-04-05 18:32:00,78.8,-8.5,26.84,SSE,158,5.4,5.4,3,0.00,,---,0.00,VWS V14.01,2013-04-05 23:32:00,
2013-04-05 18:37:00,77.9,-9.1,26.84,SSE,158,6.5,10.3,3,0.00,,---,0.00,VWS V14.01,2013-04-05 23:37:00,
2013-04-05 18:42:00,77.5,-9.3,26.84,South,180,4.9,10.3,3,0.00,,---,0.00,VWS V14.01,2013-04-05 23:42:00,
2013-04-05 18:45:00,70.0,-8.6,26.81,SE,135,1.3,4.3,4,0.00,,---,0.00,VWS V14.01,2013-04-05 23:45:00,
2013-04-05 18:47:00,77.5,-9.3,26.84,SSW,202,6.3,6.5,3,0.00,,---,0.00,VWS V14.01,2013-04-05 23:47:00,
2013-04-05 18:52:00,77.9,-9.1,26.84,South,180,4.7,6.5,3,0.00,,---,0.00,VWS V14.01,2013-04-05 23:52:00,
2013-04-05 18:57:00,77.5,-9.3,26.84,SW,225,5.4,6.5,3,0.00,,---,0.00,VWS V14.01,2013-04-05 23:57:00,
2013-04-05 19:00:00,68.5,-5.1,26.81,SE,135,2.5,2.9,5,0.00,,---,0.00,VWS V14.01,2013-04-06 00:00:00,
2013-04-05 19:02:00,77.0,-9.7,26.81,South,180,4.0,6.0,3,0.00,,---,0.00,VWS V14.01,2013-04-06 00:02:00,
2013-04-05 19:07:00,76.8,-9.8,26.81,South,180,5.4,6.3,3,0.00,,---,0.00,VWS V14.01,2013-04-06 00:07:00,
2013-04-05 19:12:00,76.3,-10.2,26.81,South,180,3.4,6.3,3,0.00,,---,0.00,VWS V14.01,2013-04-06 00:12:00,
2013-04-05 19:15:00,67.1,-6.1,26.78,East,90,0.0,2.7,5,0.00,,---,0.00,VWS V14.01,2013-04-06 00:15:00,
2013-04-05 19:17:00,75.4,-10.8,26.84,West,270,2.5,3.4,3,0.00,,---,0.00,VWS V14.01,2013-04-06 00:17:00,
2013-04-05 19:22:00,74.7,-11.2,26.84,South,180,2.9,3.4,3,0.00,,---,0.00,VWS V14.01,2013-04-06 00:22:00,
2013-04-05 19:27:00,73.8,-11.9,26.84,SSE,158,5.4,5.6,3,0.00,,---,0.00,VWS V14.01,2013-04-06 00:27:00,
2013-04-05 19:30:00,65.8,-7.0,26.81,NE,45,1.1,2.7,5,0.00,,---,0.00,VWS V14.01,2013-04-06 00:30:00,
2013-04-05 19:32:00,72.5,-6.9,26.81,South,180,3.6,4.3,4,0.00,,---,0.00,VWS V14.01,2013-04-06 00:32:00,
2013-04-05 19:37:00,71.2,-7.8,26.81,SE,135,2.5,4.3,4,0.00,,---,0.00,VWS V14.01,2013-04-06 00:37:00,
2013-04-05 19:42:00,70.3,-8.4,26.81,SE,135,2.5,4.3,4,0.00,,---,0.00,VWS V14.01,2013-04-06 00:42:00,
2013-04-05 19:45:00,64.0,-4.5,26.78,North,0,0.0,1.6,6,0.00,,---,0.00,VWS V14.01,2013-04-06 00:45:00,
2013-04-05 19:47:00,69.8,-8.8,26.81,SE,135,2.2,2.2,4,0.00,,---,0.00,VWS V14.01,2013-04-06 00:47:00,
2013-04-05 19:52:00,69.1,-4.7,26.81,SE,135,1.3,2.9,5,0.00,,---,0.00,VWS V14.01,2013-04-06 00:52:00,
2013-04-05 19:57:00,68.5,-5.1,26.81,SE,135,2.9,2.9,5,0.00,,---,0.00,VWS V14.01,2013-04-06 00:57:00,
2013-04-05 20:00:00,63.1,9.7,26.78,NE,45,2.7,2.9,12,0.00,,---,0.00,VWS V14.01,2013-04-06 01:00:00,
2013-04-05 20:02:00,68.2,-5.3,26.78,SE,135,2.2,2.7,5,0.00,,---,0.00,VWS V14.01,2013-04-06 01:02:00,
2013-04-05 20:07:00,67.8,-5.6,26.78,SE,135,1.3,2.7,5,0.00,,---,0.00,VWS V14.01,2013-04-06 01:07:00,
2013-04-05 20:12:00,67.5,-5.8,26.78,East,90,0.0,2.7,5,0.00,,---,0.00,VWS V14.01,2013-04-06 01:12:00,
2013-04-05 20:15:00,61.9,13.8,26.75,NE,45,1.3,2.9,15,0.00,,---,0.00,VWS V14.01,2013-04-06 01:15:00,
2013-04-05 20:17:00,66.6,-6.5,26.81,East,90,0.0,0.0,5,0.00,,---,0.00,VWS V14.01,2013-04-06 01:17:00,
2013-04-05 20:22:00,66.2,-6.7,26.81,NE,45,2.2,2.7,5,0.00,,---,0.00,VWS V14.01,2013-04-06 01:22:00,
2013-04-05 20:27:00,66.0,-6.9,26.81,NE,45,1.1,2.7,5,0.00,,---,0.00,VWS V14.01,2013-04-06 01:27:00,
2013-04-05 20:30:00,60.1,25.1,26.78,NW,315,2.2,3.1,26,0.00,,---,0.00,VWS V14.01,2013-04-06 01:30:00,
2013-04-05 20:33:00,65.5,-7.2,26.78,NE,45,0.0,1.1,5,0.00,,---,0.00,VWS V14.01,2013-04-06 01:33:00,
2013-04-05 20:38:00,64.8,-7.8,26.78,NE,45,0.0,1.1,5,0.00,,---,0.00,VWS V14.01,2013-04-06 01:38:00,
2013-04-05 20:43:00,64.2,-4.4,26.78,NE,45,0.0,1.1,6,0.00,,---,0.00,VWS V14.01,2013-04-06 01:43:00,
2013-04-05 20:45:00,57.9,25.9,26.78,South,180,0.0,2.2,29,0.00,,---,0.00,VWS V14.01,2013-04-06 01:45:00,
2013-04-05 20:48:00,63.9,-1.4,26.78,NW,315,1.6,2.5,7,0.00,,---,0.00,VWS V14.01,2013-04-06 01:48:00,
2013-04-05 20:53:00,63.5,-1.7,26.78,North,0,1.3,2.5,7,0.00,,---,0.00,VWS V14.01,2013-04-06 01:53:00,
2013-04-05 20:58:00,63.0,3.3,26.78,NE,45,2.5,2.5,9,0.00,,---,0.00,VWS V14.01,2013-04-06 01:58:00,
2013-04-05 21:00:00,57.2,27.6,26.78,North,0,0.9,2.9,32,0.00,,---,0.00,VWS V14.01,2013-04-06 02:00:00,
2013-04-05 21:03:00,63.3,9.9,26.75,NE,45,2.2,2.9,12,0.00,,---,0.00,VWS V14.01,2013-04-06 02:03:00,
2013-04-05 21:08:00,63.1,9.7,26.75,East,90,1.6,2.9,12,0.00,,---,0.00,VWS V14.01,2013-04-06 02:08:00,
2013-04-05 21:13:00,61.9,13.8,26.75,NE,45,2.5,2.9,15,0.00,,---,0.00,VWS V14.01,2013-04-06 02:13:00,
2013-04-05 21:15:00,58.5,28.7,26.78,North,0,2.7,3.4,32,0.00,,---,0.00,VWS V14.01,2013-04-06 02:15:00,
2013-04-05 21:18:00,61.0,19.6,26.78,NE,45,2.2,2.2,20,0.00,,---,0.00,VWS V14.01,2013-04-06 02:18:00,
2013-04-05 21:23:00,60.6,22.6,26.78,NE,45,2.7,3.1,23,0.00,,---,0.00,VWS V14.01,2013-04-06 02:23:00,
2013-04-05 21:28:00,60.3,24.3,26.78,North,0,0.9,3.1,25,0.00,,---,0.00,VWS V14.01,2013-04-06 02:28:00,
2013-04-05 21:30:00,57.2,27.6,26.78,East,90,0.0,3.4,32,0.00,,---,0.00,VWS V14.01,2013-04-06 02:30:00,
2013-04-05 21:33:00,59.9,25.0,26.78,NW,315,1.3,2.2,26,0.00,,---,0.00,VWS V14.01,2013-04-06 02:33:00,
2013-04-05 21:38:00,59.4,24.5,26.78,North,0,0.0,2.2,26,0.00,,---,0.00,VWS V14.01,2013-04-06 02:38:00,
2013-04-05 21:43:00,58.5,26.3,26.78,South,180,0.9,2.2,29,0.00,,---,0.00,VWS V14.01,2013-04-06 02:43:00,
2013-04-05 21:45:00,55.0,27.9,26.78,NE,45,0.0,2.0,35,0.00,,---,0.00,VWS V14.01,2013-04-06 02:45:00,
2013-04-05 21:48:00,57.7,24.9,26.78,NW,315,2.5,2.5,28,0.00,,---,0.00,VWS V14.01,2013-04-06 02:48:00,
2013-04-05 21:53:00,57.6,27.2,26.78,NNW,338,1.3,2.9,31,0.00,,---,0.00,VWS V14.01,2013-04-06 02:53:00,
2013-04-05 21:58:00,57.2,27.6,26.78,North,0,2.2,2.9,32,0.00,,---,0.00,VWS V14.01,2013-04-06 02:58:00,
2013-04-05 21:59:00,56.3,30.4,26.78,SW,225,3.4,5.8,37,0.00,,---,0.00,VWS V14.01,2013-04-06 02:59:00,
2013-04-05 22:00:00,56.3,30.4,26.78,SW,225,3.1,5.8,37,0.00,,---,0.00,VWS V14.01,2013-04-06 03:00:00,
2013-04-05 22:01:00,56.1,30.2,26.78,SSW,202,3.6,3.6,37,0.00,,---,0.00,VWS V14.01,2013-04-06 03:01:00,
2013-04-05 22:02:00,55.4,29.6,26.78,South,180,2.7,3.6,37,0.00,,---,0.00,VWS V14.01,2013-04-06 03:02:00,
2013-04-05 22:03:00,57.6,28.0,26.78,North,0,1.3,1.6,32,0.00,,---,0.00,VWS V14.01,2013-04-06 03:03:00,
2013-04-05 22:04:00,54.3,28.6,26.78,SE,135,1.3,3.6,37,0.00,,---,0.00,VWS V14.01,2013-04-06 03:04:00,
2013-04-05 22:05:00,54.1,28.5,26.78,SE,135,1.3,3.6,37,0.00,,---,0.00,VWS V14.01,2013-04-06 03:05:00,
2013-04-05 22:06:00,54.1,28.5,26.78,SE,135,1.3,3.6,37,0.00,,---,0.00,VWS V14.01,2013-04-06 03:06:00,
2013-04-05 22:07:00,54.1,28.5,26.78,SE,135,0.9,3.6,37,0.00,,---,0.00,VWS V14.01,2013-04-06 03:07:00,
2013-04-05 22:08:00,57.9,28.3,26.78,North,0,2.9,3.4,32,0.00,,---,0.00,VWS V14.01,2013-04-06 03:08:00,
2013-04-05 22:09:00,53.8,28.1,26.78,SE,135,0.0,3.6,37,0.00,,---,0.00,VWS V14.01,2013-04-06 03:09:00,
2013-04-05 22:10:00,53.8,28.1,26.78,East,90,0.9,3.6,37,0.00,,---,0.00,VWS V14.01,2013-04-06 03:10:00,
2013-04-05 22:11:00,53.6,28.0,26.78,East,90,0.0,3.6,37,0.00,,---,0.00,VWS V14.01,2013-04-06 03:11:00,
2013-04-05 22:13:00,58.5,28.7,26.78,NNW,338,3.1,3.4,32,0.00,,---,0.00,VWS V14.01,2013-04-06 03:13:00,
2013-04-05 22:15:00,53.6,28.6,26.78,North,0,2.7,3.6,38,0.00,,---,0.00,VWS V14.01,2013-04-06 03:15:00,
2013-04-05 22:18:00,58.6,28.9,26.78,NNW,338,3.1,3.4,32,0.00,,---,0.00,VWS V14.01,2013-04-06 03:18:00,
2013-04-05 22:23:00,58.6,28.9,26.78,NE,45,0.0,3.4,32,0.00,,---,0.00,VWS V14.01,2013-04-06 03:23:00,
2013-04-05 22:28:00,57.6,28.0,26.78,East,90,0.9,3.4,32,0.00,,---,0.00,VWS V14.01,2013-04-06 03:28:00,
2013-04-05 22:33:00,56.3,27.6,26.78,NE,45,1.1,2.0,33,0.00,,---,0.00,VWS V14.01,2013-04-06 03:33:00,
2013-04-05 22:38:00,55.8,27.1,26.78,NE,45,0.0,2.0,33,0.00,,---,0.00,VWS V14.01,2013-04-06 03:38:00,
2013-04-05 22:43:00,55.2,27.4,26.78,NE,45,0.0,2.0,34,0.00,,---,0.00,VWS V14.01,2013-04-06 03:43:00,
2013-04-05 22:45:00,53.4,29.1,26.78,ENE,68,0.0,3.1,39,0.00,,---,0.00,VWS V14.01,2013-04-06 03:45:00,
2013-04-05 22:48:00,54.9,27.8,26.78,NE,45,0.0,0.0,35,0.00,,---,0.00,VWS V14.01,2013-04-06 03:48:00,
2013-04-05 22:53:00,54.9,28.4,26.78,NE,45,3.8,3.8,36,0.00,,---,0.00,VWS V14.01,2013-04-06 03:53:00,
2013-04-05 22:58:00,55.8,29.2,26.78,ESE,112,5.8,5.8,36,0.00,,---,0.00,VWS V14.01,2013-04-06 03:58:00,
2013-04-05 23:00:00,53.6,29.3,26.78,SE,135,0.0,2.0,39,0.00,,---,0.00,VWS V14.01,2013-04-06 04:00:00,
2013-04-05 23:04:00,54.9,29.8,26.78,SE,135,2.2,3.6,38,0.00,,---,0.00,VWS V14.01,2013-04-06 04:04:00,
2013-04-05 23:09:00,53.8,28.1,26.78,SE,135,0.0,3.6,37,0.00,,---,0.00,VWS V14.01,2013-04-06 04:09:00,
2013-04-05 23:14:00,53.6,28.0,26.78,NW,315,2.5,3.6,37,0.00,,---,0.00,VWS V14.01,2013-04-06 04:14:00,
2013-04-05 23:15:00,54.1,30.4,26.78,NW,315,5.6,5.6,40,0.00,,---,0.00,VWS V14.01,2013-04-06 04:15:00,
2013-04-05 23:19:00,53.6,28.6,26.78,NNW,338,1.6,2.7,38,0.00,,---,0.00,VWS V14.01,2013-04-06 04:19:00,
2013-04-05 23:24:00,53.6,29.3,26.78,North,0,2.0,3.1,39,0.00,,---,0.00,VWS V14.01,2013-04-06 04:24:00,
2013-04-05 23:29:00,53.8,29.4,26.78,North,0,2.5,3.1,39,0.00,,---,0.00,VWS V14.01,2013-04-06 04:29:00,
2013-04-05 23:30:00,56.7,32.0,26.78,North,0,2.0,15.2,39,0.00,,---,0.00,VWS V14.01,2013-04-06 04:30:00,
2013-04-05 23:34:00,53.8,29.4,26.78,NNE,22,2.7,3.1,39,0.00,,---,0.00,VWS V14.01,2013-04-06 04:34:00,
2013-04-05 23:39:00,53.8,29.4,26.78,South,180,1.6,3.1,39,0.00,,---,0.00,VWS V14.01,2013-04-06 04:39:00,
2013-04-05 23:44:00,53.4,29.1,26.78,ENE,68,0.0,3.1,39,0.00,,---,0.00,VWS V14.01,2013-04-06 04:44:00,
2013-04-05 23:45:00,61.0,33.2,26.84,North,0,3.4,7.8,35,0.00,,---,0.00,VWS V14.01,2013-04-06 04:45:00,
2013-04-05 23:49:00,53.6,29.3,26.78,South,180,1.6,1.6,39,0.00,,---,0.00,VWS V14.01,2013-04-06 04:49:00,
2013-04-05 23:54:00,53.2,28.9,26.78,South,180,0.0,1.6,39,0.00,,---,0.00,VWS V14.01,2013-04-06 04:54:00,
2013-04-05 23:59:00,53.6,29.3,26.78,SE,135,0.0,2.0,39,0.00,,---,0.00,VWS V14.01,2013-04-06 04:59:00,